User: anonymous   Login
Location: Bastogne Gables
(35.1554°N, 78.9900°W)
Time: 03:31:38
(UTC+00:00)
Language:

SL-08 R/B - Orbit

View from above orbital plane
View from above orbital plane
View from above satellite
View from above satellite

Ground track
Ground track

The orbit data is extracted from the following two-line orbital elements,

1 28381U 04028B   21018.69759258  .00000069  00000-0  53184-4 0  9999
2 28381  82.9568  80.1326 0030566 308.2596 164.4378 13.78254667829613
Epoch (UTC): 18 January 2021 16:44:31
Eccentricity: 0.0030566
inclination: 82.9568°
perigee height: 947 km
apogee height: 992 km
right ascension of ascending node: 80.1326°
argument of perigee: 308.2596°
revolutions per day: 13.78254667
mean anomaly at epoch: 164.4378°
orbit number at epoch: 82961

The dashed part of the orbit path shows where the satellite is in the earth's shadow,  

DLR